PTR2217 CYKF-CYKF

Flight info

Callsign PTR2217
Flight time N/A
Altitude
Route
Aircraft DHD8

Departure

Time 2026-05-03 23:51
Airport Region of Waterloo International Airport (CYKF)

Arrival

Time N/A
Airport Region of Waterloo International Airport (CYKF)
Time Latitude Longitude Altitude Speed Heading
2026-05-03 23:08 43.45520 -80.38298 1034 ft 0 kts 218°
2026-05-03 23:46 43.45519 -80.38302 1034 ft 2 kts 248°
2026-05-03 23:46 43.45558 -80.38310 1034 ft 10 kts
2026-05-03 23:47 43.45622 -80.38375 1034 ft 13 kts 308°
2026-05-03 23:47 43.45682 -80.38479 1034 ft 15 kts 309°
2026-05-03 23:47 43.45739 -80.38567 1034 ft 6 kts 347°
2026-05-03 23:47 43.45785 -80.38506 1034 ft 12 kts 63°
2026-05-03 23:48 43.45837 -80.38355 1034 ft 17 kts 65°
2026-05-03 23:48 43.45883 -80.38219 1035 ft 14 kts 66°
2026-05-03 23:48 43.45932 -80.38072 1037 ft 17 kts 65°
2026-05-03 23:48 43.45982 -80.37925 1039 ft 16 kts 64°
2026-05-03 23:49 43.46037 -80.37762 1041 ft 25 kts 65°
2026-05-03 23:49 43.46105 -80.37560 1045 ft 20 kts 64°
2026-05-03 23:49 43.46161 -80.37396 1047 ft 18 kts 64°
2026-05-03 23:49 43.46210 -80.37252 1050 ft 13 kts 66°
2026-05-03 23:50 43.46279 -80.37182 1050 ft 12 kts 14°
2026-05-03 23:50 43.46296 -80.37176 1051 ft 3 kts 13°
2026-05-03 23:50 43.46373 -80.37254 1051 ft 14 kts 250°
2026-05-03 23:50 43.46182 -80.37830 1043 ft 120 kts 245°
2026-05-03 23:51 43.45793 -80.39059 1596 ft 154 kts 245°
2026-05-03 23:51 43.45381 -80.40467 2421 ft 168 kts 249°
2026-05-03 23:51 43.44893 -80.41944 3280 ft 178 kts 247°
2026-05-03 23:51 43.44347 -80.43594 3756 ft 202 kts 247°
2026-05-03 23:52 43.43788 -80.45431 3910 ft 210 kts 248°
2026-05-03 23:52 43.42825 -80.46885 3948 ft 212 kts 213°
2026-05-03 23:52 43.41332 -80.47051 3973 ft 228 kts 174°
2026-05-03 23:52 43.40008 -80.45761 3983 ft 247 kts 133°
2026-05-03 23:53 43.39448 -80.43513 3998 ft 259 kts 99°
2026-05-03 23:53 43.39409 -80.41005 3995 ft 261 kts 91°
2026-05-03 23:53 43.39486 -80.38506 3992 ft 265 kts 88°
2026-05-03 23:53 43.39627 -80.35962 3990 ft 269 kts 86°
2026-05-03 23:54 43.39808 -80.33417 3990 ft 270 kts 85°
2026-05-03 23:54 43.40023 -80.30833 3984 ft 271 kts 84°
2026-05-03 23:54 43.40260 -80.28254 3994 ft 273 kts 83°
2026-05-03 23:54 43.40514 -80.25652 3993 ft 274 kts 82°
2026-05-03 23:55 43.41079 -80.23225 3967 ft 263 kts 54°
2026-05-03 23:55 43.42388 -80.21747 3969 ft 231 kts 13°
2026-05-03 23:55 43.43903 -80.21532 3853 ft 214 kts 348°
2026-05-03 23:55 43.45425 -80.21705 3640 ft 225 kts 346°
2026-05-03 23:56 43.46978 -80.22132 3377 ft 231 kts 331°
2026-05-03 23:56 43.48264 -80.23321 3066 ft 209 kts 308°
2026-05-03 23:56 43.49010 -80.24840 2647 ft 179 kts 290°
2026-05-03 23:56 43.49325 -80.26386 2268 ft 162 kts 271°